Regional Weather Roundup
Issued by NWS Cleveland, OH

Home | Current Version | Previous Version | Graphics & Text | Print | Product List | Glossary On
Versions: 1 2 3 4 5 6 7 8 9 10 11 12 13 14 15 16 17 18 19 20 21 22 23 24 25 26 27 28 29 30 31 32 33 34 35 36 37 38 39 40 41 42 43 44 45 46 47 48 49 50
000
ASUS41 KCLE 302300
RWRCLE
OHIO REGIONAL WEATHER ROUNDUP
NATIONAL WEATHER SERVICE WILMINGTON, OH
700 PM EDT TUE JUN 30 2015

NOTE: "FAIR" INDICATES FEW OR NO CLOUDS BELOW 12,000 FEET WITH NO
SIGNIFICANT WEATHER AND/OR OBSTRUCTIONS TO VISIBILITY.

OHZ001>008-015>018-024>027-034-035-043-044-010000-
   NORTHWEST OHIO

CITY           SKY/WX    TMP DP  RH WIND       PRES   REMARKS
DEFIANCE       PTSUNNY   76  65  68 W7        29.76S
FINDLAY        MOSUNNY   74  65  73 SW6       29.76S
TOLEDO EXPRESS SUNNY     74  64  71 S7        29.74F
TOLEDO EXEC    SUNNY     76  62  62 SW7       29.75F
LIMA           PTSUNNY   70  65  84 W9        29.78S
$$

OHZ009>014-019>023-028>033-038-089-010000-
   NORTHEAST OHIO

CITY           SKY/WX    TMP DP  RH WIND       PRES   REMARKS
CLE-HOPKINS    CLOUDY    69  65  86 S5        29.78F
CLE-LAKEFRONT  PTSUNNY   70  64  81 S5        29.75F
CUY CO. ARPT   PTSUNNY   72  66  83 SW6       29.78S
LORAIN-ELYRIA  PTSUNNY   70  63  78 W6        29.77F
ASHTABULA      RAIN      65  63  93 NW3       29.79S FOG
AKRON-CANTON   CLOUDY    68  62  81 W8        29.79S
WOOSTER        NOT AVBL
MANSFIELD      CLOUDY    72  63  73 SW7       29.80S
YOUNGSTOWN     CLOUDY    66  63  90 CALM      29.78F
$$

OHZ042-051>053-060>062-070>072-077>081-010000-
  SOUTHWEST OHIO

CITY           SKY/WX    TMP DP  RH WIND       PRES   REMARKS
CINC-COVINGTON CLOUDY    67  63  87 S3        29.83F THUNDER
CINC-LUNKEN    CLOUDY    64  59  83 SW6       29.83S
HAMILTON       CLOUDY    71  63  75 VRB5      29.83R
DAYTON         NOT AVBL
WRIGHT-PAT AFB NOT AVBL
DAYTON GENERAL CLOUDY    70  63  78 S8        29.81S
WILMINGTON     CLOUDY    66  61  84 S8        29.83R
$$

OHZ036-037-039>041-045>050-054>059-063>069-073>076-082>088-010000-
  CENTRAL AND SOUTHEAST OHIO

CITY           SKY/WX    TMP DP  RH WIND       PRES   REMARKS
COLUMBUS       CLOUDY    69  63  81 S10       29.80S
OSU AIRPORT    CLOUDY    72  64  76 SW8       29.79S
BOLTON FIELD   NOT AVBL
RICKENBACK AFB NOT AVBL
NEWARK         CLOUDY    69  62  78 S10       29.80F
MARION         PTSUNNY   74  63  68 W5        29.79S
LANCASTER      CLOUDY    68  59  73 SW9       29.82S
ZANESVILLE     CLOUDY    66  59  78 SW7       29.81F
NEW PHILLY     CLOUDY    67  63  87 CALM      29.81S
$$


USA.gov is the U.S. government's official web portal to all federal, state and local government web resources and services.